DMSP 5D-2 F13 DEB, 40413

Orbit data source: Space-Track

DMSP 5D-2 F13 DEB, 40413 is space debris in SSO originally from a launch on Fri, 24 Mar 1995 UTC launched from the Air Force Western Test Range (AFWTR). Debris objects in space refer to the collection of defunct objects orbiting the Earth. Examples of debris include non-operational satellites, rocket bodies, and fragments generated from explosions, collisions, or faulty payload assembly.

Loading next visibility...
Identifier
40413, 1995-015AA
Orbit
SSO
Country
Flag of USUS
Related business
Manufacturer
Unknown
Mission
Spacecraft
Bus & Motor
Unknown
Mass
Unknown
Launch date (UTC)
1995-03-24 (31 years ago)
Launch vehicle
Unknown
Launch site
Air Force Western Test Range (AFWTR)
Object type
Payload
Rocket body
Debris
Shape & HBR
Unknown shape, 0.1 m
Radar Cross Section
Small (<0.1 m²)

Expand to show TLE details & history
Last TLE update: 19 hours ago

TLE from 19 hours ago
0 DMSP 5D-2 F13 DEB
1 40413U 95015AA  25348.80699557  .00002706  00000-0  10225-2 0  9990
2 40413  98.6338  13.6292 0013732 109.6669 250.5997 14.32062725560951
Epoch: 2025-12-14T19:22Z
TLE epoch observation values (Epoch: 2025-12-14T19:22:04.417Z)
Latitude
-0.00005°
Longitude
-0.60381°
Altitude
791.058 km
Speed
7.456 km/s
True Right ascension
00h 54m 31s
True Declination
0° 00' 00"
Sunlit
Object was in daylight at epoch
Visualization orbit readout
Latitude
Unknown
Longitude
Unknown
Altitude
Unknown
Speed
Unknown
Apparent Right ascension
Unknown
Apparent Declination
Unknown
Sunlit
N/A
Visualization observer readout
Local Sidereal Time
13:02:16
Azimuth
Unknown
Elevation
Unknown
Doppler factor
Unknown
Orbital elements
Apogee altitude
791.815 km
Perigee altitude
772.151 km
Semi-major axis
7,160.12 km
Eccentricity
0.00137
Inclination
98.6338°
RAAN
13.6292°
Arg. of periapsis
109.6669°
True anomaly
250.45136°
Mean anomaly
250.5997°
Eccentric anomaly
250.52552°
Mean motion
3.58231 °/min
Orbital period
100.49 mins
BSTAR
0.0010225
Loading maneuver chart data...
Computing Atmospheric mass density...

Documentation

Showing up to 5 results
|